カタログに戻る

SL-12 DEB

LostHEO
NORAD 27967·DEBRIS·🇷🇺 Russia

打ち上げ Sep 16, 1988 から Baikonur Cosmodrome

Loading…

次のパス (今後24時間)

TLE

古いSource: Space-Track

元期: Nov 22, 2004, 13:45 UTC

1 27967U 88085M   04327.57302684  .00013205  00000-0  74620-1 0  9992
2 27967  65.1337  38.8598 4877416  45.9105 345.2251  5.36509938 23331

AllMySatでSL-12 DEBをリアルタイム追跡

Download on the App Store